This is the latest recevied weather packets stored in our database for station/object WW5JC. If no packets are shown the sender has not sent any weather packets the latest 10 day(s).
| Time | Temp. | Humidity | Pressure | Rain* | Wind** | Luminosity | Snow |
|---|---|---|---|---|---|---|---|
| 1788442161 | 25.56° C | 87% | 1017 hPa | 0 mm | - | 137 W/m² | - |
| 1788441856 | 25° C | 88% | 1017 hPa | 0 mm | - | 105 W/m² | - |
| 1788441550 | 25° C | 88% | 1017 hPa | 0 mm | - | 94 W/m² | - |
| 1788441245 | 25° C | 88% | 1016.9 hPa | 0 mm | - | 75 W/m² | - |
| 1788440944 | 25° C | 89% | 1016.9 hPa | 0 mm | - | 68 W/m² | - |
| 1788440639 | 25° C | 90% | 1016.9 hPa | 0 mm | - | 57 W/m² | - |
| 1788440338 | 25° C | 89% | 1017 hPa | 0 mm | - | 63 W/m² | - |
| 1788440032 | 25° C | 89% | 1017 hPa | 0 mm | - | 70 W/m² | - |
| 1788439732 | 24.44° C | 90% | 1016.8 hPa | 0 mm | - | 50 W/m² | - |
| 1788439422 | 24.44° C | 90% | 1016.9 hPa | 0 mm | - | 39 W/m² | - |
| 1788439120 | 23.89° C | 91% | 1016.8 hPa | 0 mm | - | 28 W/m² | - |
| 1788438815 | 23.89° C | 92% | 1016.7 hPa | 0 mm | - | 23 W/m² | - |
| 1788438514 | 23.89° C | 92% | 1016.5 hPa | 0 mm | - | 20 W/m² | - |
| 1788438209 | 23.89° C | 92% | 1016.6 hPa | 0 mm | - | 17 W/m² | - |
| 1788437907 | 23.89° C | 92% | 1016.5 hPa | 0 mm | - | 14 W/m² | - |
| 1788437603 | 23.89° C | 93% | 1016.7 hPa | 0 mm | - | 11 W/m² | - |
| 1788437298 | 23.89° C | 93% | 1016.4 hPa | 0 mm | - | 8 W/m² | - |
| 1788436992 | 23.89° C | 93% | 1016.6 hPa | 0 mm | - | 5 W/m² | - |
| 1788436691 | 23.89° C | 93% | 1016.7 hPa | 0 mm | - | 3 W/m² | - |
| 1788436386 | 23.89° C | 93% | 1016.6 hPa | 0 mm | - | 2 W/m² | - |
| 1788436086 | 23.89° C | 93% | 1016.6 hPa | 0 mm | - | 1 W/m² | - |
| 1788435782 | 23.33° C | 93% | 1016.6 hPa | 0 mm | - | 0 W/m² | - |
| 1788435477 | 23.33° C | 93% | 1016.6 hPa | 0 mm | - | 0 W/m² | - |
| 1788435172 | 23.33° C | 93% | 1016.5 hPa | 0 mm | - | 0 W/m² | - |
| 1788434868 | 23.89° C | 93% | 1016.7 hPa | 0 mm | - | 0 W/m² | - |
* Rain latest hour (hover to see other rain measurements)
** Current wind speed in m/s (hover to see current wind gust speed)